Location: Casilda
(33.0440°S, 61.1680°W)
Time: 01:26:53
(UTC-03:00)

ISS - Pass Details

Date: 10 November 2018
Orbit: 402 x 408 km, 51.6° (Epoch: 17 November)

Event Time Altitude Azimuth Distance (km) Brightness Sun altitude
Rises 21:22:22 0° 251° (WSW) 2,344 1.4 -19.6°
Reaches altitude 10° 21:25:57 10° 292° (WNW) 1,469 -0.6 -20.1°
Maximum altitude 21:26:43 11° 305° (NW) 1,430 -0.9 -20.3°
Drops below altitude 10° 21:27:28 10° 319° (NW) 1,463 -1.0 -20.4°
Enters shadow 21:27:38 10° 321° (NW) 1,478 -1.0 -20.4°
